Regional Weather Roundup
Issued by NWS

Home | Current Version | Previous Version | Text Only | Print | Product List | Glossary Off
Versions: 1 2 3 4 5 6 7 8 9 10 11 12 13 14 15 16 17 18 19 20 21 22 23 24 25 26 27 28 29 30 31 32 33 34 35 36 37 38 39 40 41 42 43 44 45 46 47 48 49 50

000
ASUS43 KOAX 260010
RWRNE

WEATHER ROUNDUP FOR NEBRASKA
NATIONAL WEATHER SERVICE OMAHA NE
700 PM CDT THU AUG 25 2016

NOTES: SATELLITE DATA IS BEING USED TO AUGMENT CLOUD COVER ABOVE
       12000 FEET.
       "FAIR" INDICATES FEW OR NO CLOUDS BELOW 12,000 FEET WITH NO
       SIGNIFICANT WEATHER AND/OR OBSTRUCTIONS TO VISIBILITY.

  * THESE STATIONS DO NOT REPORT WEATHER SUCH AS RAIN...SNOW OR FOG.

NEZ001>004-019>022-054>056-260100-
NEBRASKA PANHANDLE

CITY           SKY/WX    TMP DP  RH WIND       PRES   REMARKS
SCOTTSBLUFF    MOSUNNY   72  46  39 E10       30.18F
6HR MIN TEMP:  64; 6HR MAX TEMP:  72;

ALLIANCE       MOSUNNY   71  44  37 NE8       30.19F
6HR MIN TEMP:  63; 6HR MAX TEMP:  72;

CHADRON        CLOUDY    68  47  46 NE9       30.20F
6HR MIN TEMP:  60; 6HR MAX TEMP:  70;

KIMBALL        CLOUDY    69  44  41 SE12      30.21S
SIDNEY         CLOUDY    72  43  35 SE12      30.20F
6HR MIN TEMP:  68; 6HR MAX TEMP:  76;

$$

NEZ057>060-069>072-079>082-260100-
SOUTHWEST NEBRASKA

CITY           SKY/WX    TMP DP  RH WIND       PRES   REMARKS
NORTH PLATTE   SUNNY     77  51  40 SE7       30.15S
6HR MIN TEMP:  75; 6HR MAX TEMP:  80;

IMPERIAL       SUNNY     76  43  30 SE12      30.15S
6HR MIN TEMP:  72; 6HR MAX TEMP:  79;

LEXINGTON      SUNNY     76  51  42 SE8       30.14S
MCCOOK         SUNNY     77  52  41 E8        30.14R
6HR MIN TEMP:  73; 6HR MAX TEMP:  80;

OGALLALA       SUNNY     76  44  32 E6        30.17S
$$

NEZ005>010-023>029-035>040-094-260100-
NORTH CENTRAL NEBRASKA

CITY           SKY/WX    TMP DP  RH WIND       PRES   REMARKS
VALENTINE      SUNNY     71  45  39 N8        30.20S
6HR MIN TEMP:  68; 6HR MAX TEMP:  74;

AINSWORTH      SUNNY     71  52  52 N9        30.18S
BROKEN BOW     SUNNY     74  53  48 NE6       30.15F
6HR MIN TEMP:  71; 6HR MAX TEMP:  77;

O`NEILL        SUNNY     74  49  40 NW7       30.16F
ORD            SUNNY     75  51  43 NE5       30.13F
6HR MIN TEMP:  72; 6HR MAX TEMP:  78;

THEDFORD       MOSUNNY   75  47  38 N3        30.19S
$$

NEZ041-046>049-061>064-073>077-083>087-260100-
SOUTH CENTRAL NEBRASKA

CITY           SKY/WX    TMP DP  RH WIND       PRES   REMARKS
GRAND ISLAND   SUNNY     74  55  51 E9        30.14S
6HR MIN TEMP:  73; 6HR MAX TEMP:  79;

AURORA         SUNNY     74  57  55 NE8       30.13S
HASTINGS       SUNNY     74  56  53 NE8       30.14S
6HR MIN TEMP:  73; 6HR MAX TEMP:  78;

HEBRON         SUNNY     73  60  63 NE5       30.11F
HOLDREGE       SUNNY     73  55  53 E8        30.14S
KEARNEY *      SUNNY     75  57  53 E8        30.13S
YORK           LGT RAIN  73  57  56 NE8       30.13F
$$

NEZ011>018-030>034-042>045-260100-
NORTHEAST NEBRASKA

CITY           SKY/WX    TMP DP  RH WIND       PRES   REMARKS
NORFOLK        SUNNY     74  54  49 N8        30.13F
6HR MIN TEMP:  69; 6HR MAX TEMP:  76;

ALBION         SUNNY     72  56  55 E6        30.14F
BLAIR          SUNNY     73  61  66 N6        30.11F
FREMONT        SUNNY     73  58  58 CALM      30.13S
TEKAMAH        SUNNY     74  59  59 N6        30.11F
6HR MIN TEMP:  71; 6HR MAX TEMP:  77;

WAYNE          SUNNY     72  58  61 N5        30.14S
$$

NEZ050>053-065>068-078-088>093-260100-
SOUTHEAST NEBRASKA

CITY           SKY/WX    TMP DP  RH WIND       PRES   REMARKS
LINCOLN        SUNNY     76  61  59 NE8       30.11F
6HR MIN TEMP:  72; 6HR MAX TEMP:  79;

OMAHA EPPLEY   MOSUNNY   76  62  62 N6        30.10F
6HR MIN TEMP:  71; 6HR MAX TEMP:  78;

BEATRICE       SUNNY     73  60  64 NE5       30.10S
FALLS CITY     SUNNY     76  62  62 N8        30.07F
6HR MIN TEMP:  72; 6HR MAX TEMP:  78;

NEBRASKA CITY  SUNNY     71  60  67 N3        30.11S
PLATTSMOUTH    MOSUNNY   73  60  65 N3        30.11S
$$

NEZ044-045-051>053-067-260100-
OMAHA AREA

CITY           SKY/WX    TMP DP  RH WIND       PRES   REMARKS
OMAHA EPPLEY   MOSUNNY   76  62  62 N6        30.10F
6HR MIN TEMP:  71; 6HR MAX TEMP:  78;

BLAIR          SUNNY     73  61  66 N6        30.11F
FREMONT        SUNNY     73  58  58 CALM      30.13S
MILLARD        SUNNY     76  61  60 N6        30.10F
OFFUTT AFB     PTSUNNY   75  62  63 N3        30.09F
PLATTSMOUTH    MOSUNNY   73  60  65 N3        30.11S
WAHOO          FAIR      70  62  74 N5        30.12S
$$




USA.gov is the U.S. government's official web portal to all federal, state and local government web resources and services.